TimeEST,TemperatureF,Dew PointF,Humidity,Sea Level PressureIn,VisibilityMPH,Wind Direction,Wind SpeedMPH,Gust SpeedMPH,PrecipitationIn,Events,Conditions,WindDirDegrees,DateUTC
12:15 AM,46.4,42.8,87,29.59,10.0,SW,9.2,-,N/A,,Scattered Clouds,220,2012-12-18 05:15:00
12:35 AM,46.4,42.8,87,29.59,10.0,SSW,10.4,-,N/A,,Mostly Cloudy,210,2012-12-18 05:35:00
12:55 AM,46.4,42.8,87,29.59,10.0,SSW,9.2,-,N/A,,Scattered Clouds,210,2012-12-18 05:55:00
1:15 AM,46.4,42.8,87,29.58,10.0,SW,8.1,16.1,N/A,,Mostly Cloudy,220,2012-12-18 06:15:00
1:35 AM,46.4,42.8,87,29.59,10.0,SW,10.4,-,N/A,,Mostly Cloudy,220,2012-12-18 06:35:00
1:55 AM,46.4,42.8,87,29.59,10.0,SW,10.4,-,N/A,,Overcast,220,2012-12-18 06:55:00
2:15 AM,46.4,42.8,87,29.59,10.0,SW,9.2,-,N/A,,Overcast,220,2012-12-18 07:15:00
2:35 AM,46.4,44.6,93,29.60,10.0,SW,10.4,-,N/A,,Overcast,230,2012-12-18 07:35:00
2:55 AM,46.4,44.6,93,29.60,10.0,SW,10.4,-,N/A,,Overcast,230,2012-12-18 07:55:00
3:15 AM,46.4,44.6,93,29.60,10.0,SW,9.2,-,N/A,,Overcast,230,2012-12-18 08:15:00
3:35 AM,46.4,44.6,93,29.60,10.0,SW,10.4,17.3,N/A,,Overcast,230,2012-12-18 08:35:00
3:55 AM,46.4,44.6,93,29.60,10.0,WSW,9.2,-,N/A,,Overcast,240,2012-12-18 08:55:00
4:15 AM,44.6,44.6,100,29.60,10.0,WSW,13.8,17.3,N/A,,Overcast,240,2012-12-18 09:15:00
4:35 AM,44.6,42.8,93,29.60,10.0,WSW,13.8,20.7,N/A,,Overcast,240,2012-12-18 09:35:00
4:55 AM,44.6,42.8,93,29.61,10.0,WSW,12.7,18.4,N/A,,Overcast,240,2012-12-18 09:55:00
5:15 AM,44.6,42.8,93,29.61,10.0,WSW,10.4,20.7,N/A,,Overcast,250,2012-12-18 10:15:00
5:35 AM,44.6,42.8,93,29.62,10.0,West,12.7,19.6,N/A,,Overcast,260,2012-12-18 10:35:00
5:55 AM,44.6,42.8,93,29.62,10.0,WSW,13.8,18.4,N/A,,Overcast,250,2012-12-18 10:55:00
6:15 AM,44.6,42.8,93,29.63,10.0,WSW,12.7,-,N/A,,Mostly Cloudy,250,2012-12-18 11:15:00
6:35 AM,44.6,42.8,93,29.63,10.0,WSW,13.8,19.6,N/A,,Mostly Cloudy,250,2012-12-18 11:35:00
6:55 AM,44.6,42.8,93,29.64,10.0,WSW,13.8,17.3,N/A,,Overcast,240,2012-12-18 11:55:00
7:15 AM,44.6,41.0,87,29.65,10.0,WSW,13.8,17.3,N/A,,Overcast,250,2012-12-18 12:15:00
7:35 AM,42.8,42.8,100,29.65,10.0,WSW,12.7,-,N/A,,Overcast,250,2012-12-18 12:35:00
7:55 AM,42.8,42.8,100,29.66,10.0,West,11.5,-,N/A,Rain,Light Rain,270,2012-12-18 12:55:00
8:15 AM,42.8,41.0,93,29.67,10.0,WNW,12.7,23.0,N/A,,Mostly Cloudy,290,2012-12-18 13:15:00
8:35 AM,42.8,39.2,87,29.68,10.0,West,17.3,-,N/A,,Overcast,270,2012-12-18 13:35:00
8:55 AM,42.8,39.2,87,29.69,10.0,West,12.7,20.7,N/A,,Overcast,270,2012-12-18 13:55:00
9:15 AM,42.8,37.4,81,29.70,10.0,West,10.4,19.6,N/A,,Overcast,270,2012-12-18 14:15:00
9:35 AM,42.8,37.4,81,29.71,7.0,WNW,10.4,17.3,N/A,Rain,Light Rain,290,2012-12-18 14:35:00
9:55 AM,41.0,37.4,87,29.72,10.0,West,12.7,20.7,N/A,,Overcast,280,2012-12-18 14:55:00
10:15 AM,41.0,37.4,87,29.73,10.0,WNW,10.4,23.0,N/A,,Overcast,290,2012-12-18 15:15:00
10:35 AM,41.0,35.6,81,29.74,10.0,West,6.9,-,N/A,,Overcast,280,2012-12-18 15:35:00
10:55 AM,41.0,35.6,81,29.75,10.0,West,13.8,18.4,N/A,,Overcast,270,2012-12-18 15:55:00
11:15 AM,41.0,35.6,81,29.75,10.0,NW,16.1,23.0,N/A,,Overcast,320,2012-12-18 16:15:00
11:35 AM,39.2,35.6,87,29.76,10.0,WNW,10.4,-,N/A,,Overcast,290,2012-12-18 16:35:00
11:55 AM,39.2,33.8,81,29.77,10.0,WNW,12.7,18.4,N/A,,Overcast,290,2012-12-18 16:55:00
12:15 PM,37.4,35.6,93,29.77,10.0,NW,10.4,21.9,N/A,,Overcast,320,2012-12-18 17:15:00
12:35 PM,39.2,33.8,81,29.77,10.0,WNW,11.5,18.4,N/A,,Overcast,290,2012-12-18 17:35:00
12:55 PM,37.4,33.8,87,29.78,10.0,West,10.4,17.3,N/A,,Overcast,280,2012-12-18 17:55:00
1:15 PM,37.4,33.8,87,29.78,10.0,WNW,11.5,20.7,N/A,,Overcast,290,2012-12-18 18:15:00
1:35 PM,37.4,33.8,87,29.79,10.0,West,10.4,-,N/A,,Overcast,270,2012-12-18 18:35:00
1:55 PM,37.4,33.8,87,29.80,10.0,West,10.4,16.1,N/A,,Light Drizzle,260,2012-12-18 18:55:00
2:15 PM,37.4,35.6,93,29.80,9.0,West,11.5,16.1,N/A,,Overcast,270,2012-12-18 19:15:00
2:35 PM,37.4,35.6,93,29.81,9.0,West,13.8,-,N/A,,Overcast,260,2012-12-18 19:35:00
2:55 PM,37.4,35.6,93,29.82,5.0,WNW,9.2,-,N/A,,Light Drizzle,290,2012-12-18 19:55:00
3:15 PM,35.6,35.6,100,29.82,4.0,West,9.2,-,N/A,,Overcast,270,2012-12-18 20:15:00
3:35 PM,35.6,35.6,100,29.82,5.0,West,12.7,16.1,N/A,,Overcast,270,2012-12-18 20:35:00
3:55 PM,35.6,35.6,100,29.83,9.0,West,9.2,-,N/A,,Overcast,260,2012-12-18 20:55:00
4:15 PM,37.4,35.6,93,29.83,10.0,West,10.4,-,N/A,,Overcast,260,2012-12-18 21:15:00
4:35 PM,37.4,35.6,93,29.84,10.0,West,10.4,-,N/A,,Mostly Cloudy,260,2012-12-18 21:35:00
4:55 PM,37.4,33.8,87,29.84,10.0,SW,8.1,-,N/A,,Overcast,230,2012-12-18 21:55:00
5:15 PM,37.4,33.8,87,29.85,10.0,WSW,8.1,-,N/A,,Overcast,250,2012-12-18 22:15:00
5:35 PM,37.4,35.6,93,29.85,10.0,WSW,5.8,-,N/A,,Overcast,240,2012-12-18 22:35:00
5:55 PM,35.6,35.6,100,29.85,10.0,SW,5.8,-,N/A,,Mostly Cloudy,230,2012-12-18 22:55:00
6:15 PM,37.4,35.6,93,29.86,10.0,SW,6.9,-,N/A,,Overcast,230,2012-12-18 23:15:00
6:35 PM,37.4,35.6,93,29.86,10.0,SW,8.1,-,N/A,,Mostly Cloudy,220,2012-12-18 23:35:00
6:55 PM,37.4,33.8,87,29.86,10.0,SSW,5.8,-,N/A,,Mostly Cloudy,210,2012-12-18 23:55:00
7:15 PM,37.4,33.8,87,29.87,10.0,SSW,8.1,-,N/A,,Mostly Cloudy,210,2012-12-19 00:15:00
7:35 PM,37.4,35.6,93,29.87,10.0,SSW,10.4,-,N/A,,Mostly Cloudy,210,2012-12-19 00:35:00
7:55 PM,37.4,35.6,93,29.86,10.0,SSW,10.4,16.1,N/A,,Overcast,200,2012-12-19 00:55:00
8:15 PM,37.4,35.6,93,29.85,10.0,SW,11.5,18.4,N/A,,Overcast,220,2012-12-19 01:15:00
8:35 PM,37.4,35.6,93,29.85,10.0,SSW,8.1,-,N/A,,Overcast,200,2012-12-19 01:35:00
8:55 PM,37.4,33.8,87,29.84,10.0,South,8.1,-,N/A,,Mostly Cloudy,190,2012-12-19 01:55:00
9:15 PM,35.6,33.8,93,29.84,10.0,SSW,5.8,-,N/A,,Partly Cloudy,200,2012-12-19 02:15:00
9:35 PM,35.6,33.8,93,29.83,10.0,South,8.1,-,N/A,,Clear,190,2012-12-19 02:35:00
9:55 PM,35.6,33.8,93,29.84,10.0,SW,4.6,-,N/A,,Clear,220,2012-12-19 02:55:00
10:15 PM,35.6,33.8,93,29.84,10.0,South,3.5,-,N/A,,Clear,190,2012-12-19 03:15:00
10:35 PM,35.6,33.8,93,29.82,10.0,ESE,4.6,-,N/A,,Clear,120,2012-12-19 03:35:00
10:55 PM,35.6,33.8,93,29.83,10.0,Calm,Calm,-,N/A,,Clear,0,2012-12-19 03:55:00
11:15 PM,35.6,33.8,93,29.83,10.0,Calm,Calm,-,N/A,,Partly Cloudy,0,2012-12-19 04:15:00
11:35 PM,35.6,32.0,87,29.83,10.0,Calm,Calm,-,N/A,,Clear,0,2012-12-19 04:35:00
11:55 PM,35.6,33.8,93,29.82,10.0,Calm,Calm,-,N/A,,Partly Cloudy,0,2012-12-19 04:55:00